Flag for U.S.A. Weather past 2 weeks in Carson City, Nevada, U.S.A.

Now
70 °F

Passing clouds.


Feels Like: 76 °F
Forecast: 56 / 84 °F
Wind: No wind

Location: Reno Tahoe International Airport

Current Time: Aug 30, 2014 at 3:25:54 AM

Latest Report: Aug 30, 2014 at 2:55 AM


Visibility: 10 mi

Pressure: 29.83 "Hg

Humidity: 29%

Dew point: 36 °F

Location of Carson CityLocation

Historic Weather in Carson City — Graph

°F

Carson City temperature yesterday

Maximum temperature yesterday: 91 °F (at 2:55 PM)
Minimum temperature yesterday: 62 °F (at 5:55 AM)
Average temperature yesterday: 76 °F

Past Weeks' High & Low Weather Summary

 TemperatureHumidityPressure
High94 °F (Aug 16, 3:55 PM)67% (Aug 26, 5:55 AM)30.11 "Hg (Aug 26, 5:55 AM)
Low53 °F (Aug 24, 5:55 AM)6% (Aug 17, 2:55 PM)29.63 "Hg (Aug 19, 4:55 PM)
Average74 °F29%29.89 "Hg
* Reported Aug 15 1:55 AM — Aug 30 1:55 AM, Carson City, Weather by CustomWeather, © 2014

Note: Actual official high and low records may vary slightly from our data, if they occured in-between our weather recording intervals... More about our weather records

Advertising

Carson City weather history for previous 24 hours

 ConditionsComfort  
Time TempWeatherWind HumidityBarometerVisibility
1:55 AM
Aug 30
69 °FPassing clouds.3 mph30%29.85 "Hg10 mi
12:55 AM69 °FPassing clouds.No wind31%29.85 "Hg10 mi
11:55 PM
Aug 29
72 °FPassing clouds.No wind26%29.87 "Hg10 mi
10:55 PM75 °FPassing clouds.7 mph23%29.88 "Hg10 mi
9:55 PM77 °FPartly cloudy.12 mph19%29.88 "Hg10 mi
8:55 PM79 °FPassing clouds.5 mph17%29.88 "Hg10 mi
7:55 PM81 °FBroken clouds.8 mph16%29.87 "Hg10 mi
6:55 PM83 °FBroken clouds.16 mph15%29.85 "Hg10 mi
5:55 PM84 °FBroken clouds.16 mph16%29.85 "Hg10 mi
4:55 PM88 °FBroken clouds.16 mph14%29.83 "Hg10 mi
3:55 PM88 °FMostly cloudy.5 mph12%29.82 "Hg10 mi
2:55 PM91 °FBroken clouds.7 mph12%29.82 "Hg10 mi
1:55 PM88 °FMostly cloudy.7 mph13%29.83 "Hg10 mi
11:55 AM82 °FMostly cloudy.No wind22%29.89 "Hg10 mi
10:55 AM77 °FMostly cloudy.No wind28%29.92 "Hg10 mi
9:55 AM72 °FMostly cloudy.No wind33%29.94 "Hg10 mi
8:55 AM69 °FMore clouds than sun.3 mph36%29.95 "Hg10 mi
7:55 AM66 °FBroken clouds.3 mph40%29.95 "Hg10 mi
6:55 AM62 °FPassing clouds.3 mph52%29.95 "Hg10 mi
5:55 AM62 °FPassing clouds.3 mph52%29.93 "Hg10 mi
4:55 AM65 °FClear.5 mph45%29.91 "Hg10 mi
3:55 AM68 °FClear.6 mph36%29.91 "Hg10 mi
Weather by CustomWeather, © 2014

See weather overviewHow to use our weather pages